TimeEDT,TemperatureF,Dew PointF,Humidity,Sea Level PressureIn,VisibilityMPH,Wind Direction,Wind SpeedMPH,Gust SpeedMPH,PrecipitationIn,Events,Conditions,WindDirDegrees,DateUTC
12:53 AM,69.1,68.0,96,29.84,10.0,South,4.6,-,N/A,,Overcast,180,2013-08-02 04:53:00
1:45 AM,69.8,68.0,94,29.82,7.0,SW,3.5,-,0.01,Rain,Light Rain,220,2013-08-02 05:45:00
1:53 AM,69.1,68.0,96,29.82,5.0,SW,4.6,-,0.01,Rain,Light Rain,220,2013-08-02 05:53:00
2:22 AM,69.8,68.0,94,29.81,10.0,SSW,4.6,-,0.00,,Overcast,200,2013-08-02 06:22:00
2:45 AM,69.8,68.0,94,29.81,10.0,SSW,5.8,-,0.00,,Overcast,200,2013-08-02 06:45:00
2:53 AM,69.1,68.0,96,29.80,10.0,SSW,3.5,-,0.00,,Overcast,200,2013-08-02 06:53:00
3:18 AM,69.8,68.0,94,29.79,10.0,Calm,Calm,-,N/A,,Mostly Cloudy,0,2013-08-02 07:18:00
3:27 AM,69.8,68.0,94,29.80,10.0,Calm,Calm,-,N/A,,Scattered Clouds,0,2013-08-02 07:27:00
3:44 AM,69.8,68.0,94,29.80,9.0,Calm,Calm,-,N/A,,Mostly Cloudy,0,2013-08-02 07:44:00
3:53 AM,69.1,68.0,96,29.80,9.0,Calm,Calm,-,N/A,,Mostly Cloudy,0,2013-08-02 07:53:00
4:15 AM,69.8,68.0,94,29.80,7.0,Calm,Calm,-,N/A,,Mostly Cloudy,0,2013-08-02 08:15:00
4:53 AM,69.1,68.0,96,29.81,6.0,Calm,Calm,-,N/A,,Overcast,0,2013-08-02 08:53:00
5:53 AM,68.0,66.9,96,29.83,6.0,NW,3.5,-,N/A,,Overcast,310,2013-08-02 09:53:00
6:13 AM,68.0,66.2,94,29.83,5.0,NW,3.5,-,N/A,,Scattered Clouds,310,2013-08-02 10:13:00
6:46 AM,68.0,66.2,94,29.85,4.0,WNW,4.6,-,N/A,,Mostly Cloudy,300,2013-08-02 10:46:00
6:53 AM,68.0,66.0,93,29.85,4.0,WNW,3.5,-,N/A,,Scattered Clouds,290,2013-08-02 10:53:00
7:53 AM,70.0,66.0,87,29.87,10.0,NNW,6.9,-,N/A,,Partly Cloudy,330,2013-08-02 11:53:00
8:53 AM,73.0,64.9,76,29.88,10.0,NNW,6.9,-,N/A,,Clear,330,2013-08-02 12:53:00
9:53 AM,75.0,62.1,64,29.89,10.0,NNW,6.9,-,N/A,,Clear,340,2013-08-02 13:53:00
10:53 AM,77.0,61.0,58,29.90,10.0,West,9.2,-,N/A,,Clear,280,2013-08-02 14:53:00
11:53 AM,79.0,61.0,54,29.90,10.0,West,8.1,-,N/A,,Clear,280,2013-08-02 15:53:00
12:53 PM,81.0,57.0,44,29.89,10.0,WNW,8.1,16.1,N/A,,Partly Cloudy,290,2013-08-02 16:53:00
1:53 PM,81.0,57.0,44,29.88,10.0,WNW,8.1,-,N/A,,Scattered Clouds,290,2013-08-02 17:53:00
2:07 PM,82.4,59.0,45,29.88,10.0,West,5.8,-,N/A,,Scattered Clouds,270,2013-08-02 18:07:00
2:53 PM,82.9,60.1,46,29.88,10.0,SW,13.8,20.7,N/A,,Mostly Cloudy,230,2013-08-02 18:53:00
3:53 PM,82.9,61.0,47,29.87,10.0,SW,16.1,24.2,N/A,,Partly Cloudy,230,2013-08-02 19:53:00
4:53 PM,80.1,63.0,56,29.88,10.0,SW,15.0,-,N/A,,Clear,230,2013-08-02 20:53:00
5:53 PM,77.0,66.0,69,29.88,10.0,SSW,15.0,23.0,N/A,,Clear,210,2013-08-02 21:53:00
6:53 PM,75.9,66.0,71,29.86,10.0,SSW,9.2,-,N/A,,Clear,210,2013-08-02 22:53:00
7:53 PM,75.9,64.9,69,29.88,10.0,SW,4.6,-,N/A,,Partly Cloudy,230,2013-08-02 23:53:00
8:53 PM,75.9,63.0,64,29.89,10.0,SW,5.8,-,N/A,,Scattered Clouds,220,2013-08-03 00:53:00
9:53 PM,77.0,62.1,60,29.91,10.0,SW,5.8,-,N/A,,Mostly Cloudy,220,2013-08-03 01:53:00
10:53 PM,75.9,64.0,67,29.91,10.0,WSW,6.9,-,N/A,,Scattered Clouds,240,2013-08-03 02:53:00
11:53 PM,73.9,64.0,71,29.92,10.0,SW,4.6,-,N/A,,Clear,230,2013-08-03 03:53:00